This is the latest recevied weather packets stored in our database for station/object SV2RIM-2. If no packets are shown the sender has not sent any weather packets the latest 10 day(s).
| Time | Temp. | Humidity | Pressure | Rain* | Wind** | Luminosity | Snow |
|---|---|---|---|---|---|---|---|
| 1776911719 | 7.22° C | 82% | 1015.7 hPa | 9.91 mm | - | - | - |
| 1776911119 | 7.22° C | 83% | 1015.7 hPa | 10.16 mm | - | - | - |
| 1776910519 | 7.22° C | 83% | 1015.7 hPa | 10.41 mm | - | - | - |
| 1776909919 | 7.22° C | 83% | 1015.7 hPa | 10.41 mm | - | - | - |
| 1776909319 | 7.22° C | 83% | 1015.8 hPa | 10.41 mm | - | - | - |
| 1776908719 | 7.22° C | 82% | 1015.8 hPa | 10.41 mm | - | - | - |
| 1776908119 | 7.22° C | 82% | 1015.8 hPa | 10.41 mm | - | - | - |
| 1776907519 | 7.22° C | 82% | 1015.8 hPa | 10.67 mm | - | - | - |
| 1776906919 | 7.22° C | 81% | 1015.7 hPa | 11.18 mm | - | - | - |
| 1776906319 | 7.22° C | 81% | 1015.6 hPa | 11.68 mm | - | - | - |
| 1776905719 | 7.22° C | 80% | 1015.5 hPa | 11.68 mm | - | - | - |
| 1776905119 | 7.78° C | 81% | 1015.4 hPa | 11.94 mm | - | - | - |
| 1776904519 | 7.22° C | 82% | 1015.4 hPa | 11.68 mm | - | - | - |
| 1776903919 | 7.22° C | 82% | 1015.4 hPa | 12.95 mm | - | - | - |
| 1776903319 | 7.22° C | 82% | 1015.5 hPa | 14.48 mm | - | - | - |
| 1776902719 | 7.22° C | 82% | 1015.4 hPa | 14.73 mm | - | - | - |
| 1776902119 | 7.22° C | 82% | 1015.3 hPa | 14.73 mm | - | - | - |
| 1776901519 | 7.22° C | 82% | 1015.2 hPa | 14.73 mm | - | - | - |
| 1776900919 | 7.78° C | 83% | 1015.3 hPa | 14.99 mm | - | - | - |
| 1776900319 | 7.78° C | 83% | 1015.1 hPa | 14.99 mm | - | - | - |
| 1776899719 | 7.78° C | 82% | 1015.2 hPa | 14.99 mm | - | - | - |
| 1776899119 | 7.78° C | 83% | 1015.3 hPa | 14.99 mm | - | - | - |
| 1776898519 | 7.78° C | 83% | 1015.3 hPa | 14.73 mm | - | - | - |
| 1776897919 | 8.33° C | 83% | 1015.2 hPa | 14.73 mm | - | - | - |
| 1776897319 | 7.78° C | 83% | 1015.2 hPa | 14.73 mm | - | - | - |
* Rain latest 24 hours (hover to see other rain measurements)
** Current wind speed in m/s (hover to see current wind gust speed)